Location: Newark
(49.3000°N, 9.4667°E)
Time: 20:36:06
(UTC+00:00)

S-56A Canister/Altair - Pass Details

Date: 22 May 2019
Orbit: 633 x 2499 km, 38.9° (Epoch: 16 June)

Event Time Altitude Azimuth Distance (km) Brightness Sun altitude
Exits shadow 00:54:54 21° 177° (S) 2,309 9.4 -17.2°
Maximum altitude 00:57:31 26° 147° (SSE) 2,287 9.6 -17.0°
Drops below altitude 10° 01:04:53 10° 97° (E) 3,876 11.3 -16.5°
Sets 01:09:23 0° 87° (E) 5,212 12.2 -16.2°
